全部
Nangis-Les Loges Airport LFAI 天气
There is no TAF data available at LFAI or any nearby airports.
There is no METAR data available at LFAI. Showing METAR data for LFPM (15 mi W).
LFPM近期METAR历史数据(LFAI无数据)
| Date | Time (CEST) | Flight Rules | Wind Dir. | Speed | Type | Height AGL (ft) | Visibility | Temp (°C) | Temp (°F) | Dew Point (°C) | Dew Point (°F) | Rel. Humid. | Pressure | Density Altitude | Remarks |
|---|---|---|---|---|---|---|---|---|---|---|---|---|---|---|---|
| 03-五月 | 20:00 | VFR | 150° | 7 kt | 10000 meters | 17° | 62° | 15° | 59° | 88% | 1011 mb | 607 ft | |||
| 03-五月 | 19:30 | VFR | 170° | 7 kt | 10000 meters | 18° | 64° | 14° | 57° | 77% | 1010 mb | 757 ft | |||
| 03-五月 | 19:00 | VFR | 170° | 8 kt | 10000 meters | 18° | 64° | 15° | 59° | 83% | 1011 mb | 727 ft | |||
| 03-五月 | 18:30 | VFR | 190° | 5 kt | 10000 meters | 19° | 66° | 16° | 60° | 83% | 1010 mb | 877 ft | |||
| 03-五月 | 18:00 | VFR | 220° | 6 kt | 10000 meters | 18° | 64° | 15° | 59° | 83% | 1011 mb | 727 ft | |||
| 03-五月 | 17:30 | VFR | 210° | 7 kt | 10000 meters | 18° | 64° | 16° | 60° | 88% | 1011 mb | 727 ft | |||
| 03-五月 | 17:00 | VFR | 230° | 5 kt | 10000 meters | 18° | 64° | 16° | 60° | 88% | 1011 mb | 727 ft | |||
| 03-五月 | 16:30 | VFR | 250° | 5 kt | 10000 meters | 17° | 62° | 16° | 60° | 94% | 1011 mb | 607 ft | |||
| 03-五月 | 16:00 | VFR | 230° | 7 kt | 10000 meters | 17° | 62° | 15° | 59° | 88% | 1012 mb | 578 ft | |||
| 03-五月 | 15:30 | VFR | 180° | 10 kt | 10000 meters | 20° | 68° | 14° | 57° | 68% | 1011 mb | 967 ft | |||
| 03-五月 | 15:00 | VFR | 190° | 10 kt | 10000 meters | 19° | 66° | 15° | 59° | 78% | 1012 mb | 818 ft | |||
| 03-五月 | 14:30 | VFR | 180° | 9 kt | 10000 meters | 17° | 62° | 15° | 59° | 88% | 1012 mb | 578 ft | |||
| 03-五月 | 14:00 | VFR | 210° | 8 kt | 10000 meters | 16° | 60° | 15° | 59° | 94% | 1012 mb | 458 ft | |||
| 03-五月 | 13:30 | VFR | 200° | 10 kt | 10000 meters | 16° | 60° | 14° | 57° | 88% | 1012 mb | 458 ft | |||
| 03-五月 | 13:00 | VFR | 190° | 8 kt | 10000 meters | 16° | 60° | 15° | 59° | 94% | 1012 mb | 458 ft | |||
| 03-五月 | 12:30 | VFR | 200° | 9 kt | 10000 meters | 15° | 59° | 14° | 57° | 94% | 1013 mb | 308 ft | |||
| 03-五月 | 12:00 | VFR | 190° | 10 kt | 10000 meters | 14° | 57° | 14° | 57° | 100% | 1013 mb | 188 ft | |||
| 03-五月 | 11:30 | VFR | 190° | 8 kt | 10000 meters | 15° | 59° | 14° | 57° | 94% | 1013 mb | 308 ft | |||
| 03-五月 | 11:00 | VFR | 190° | 7 kt | 10000 meters |
14° | 57° | 14° | 57° | 100% | 1013 mb | 188 ft | |||
| 03-五月 | 10:30 | IFR | 200° | 9 kt | 3500 meters |
14° | 57° | 14° | 57° | 100% | 1013 mb | 188 ft | Mist | ||
| 03-五月 | 10:00 | IFR | 190° | 10 kt | 3300 meters |
14° | 57° | 14° | 57° | 100% | 1013 mb | 188 ft | Mist | ||
| 03-五月 | 09:30 | MVFR | 180° | 6 kt | 5000 meters |
14° | 57° | 14° | 57° | 100% | 1013 mb | 188 ft | Mist | ||
| 03-五月 | 09:00 | IFR | 180° | 6 kt | Overcast |
700 |
8000 meters |
14° | 57° | 14° | 57° | 100% | 1013 mb | 188 ft | |
| 03-五月 | 08:30 | VFR | 190° | 7 kt | 10000 meters | 14° | 57° | 14° | 57° | 100% | 1013 mb | 188 ft |
登录
| 您的浏览器不支持. 升级您的浏览器 |
